K8MUD Weather Reports


Display with metric or nautical units.
time (UTC)temp
F
wind
direction
speed
MPH
gust
MPH
rain 1hr
in
rain 24hr
in
rain mn
in
humidity
%
barometer
mb
20260508153501 53 102 3.0 8.0 0.00 0.04 0.04 73 1011.2
20260508153402 53 102 3.0 8.0 0.00 0.04 0.04 73 1011.2
20260508153002 53 102 3.0 7.0 0.00 0.04 0.04 73 1011.2
20260508152902 53 100 3.0 7.0 0.00 0.04 0.04 75 1011.2
20260508152502 53 110 3.0 6.0 0.00 0.04 0.04 74 1011.3
20260508152402 53 108 3.0 6.0 0.00 0.04 0.04 74 1011.3
20260508152002 52 100 3.0 6.0 0.00 0.04 0.04 75 1011.4
20260508151901 52 98 2.0 6.0 0.00 0.04 0.04 75 1011.4
20260508151502 52 104 3.0 7.0 0.00 0.04 0.04 74 1011.4
20260508151401 52 109 2.0 7.0 0.00 0.04 0.04 74 1011.3
20260508151002 52 126 3.0 9.0 0.00 0.04 0.04 77 1011.3
20260508150901 52 127 3.0 9.0 0.00 0.04 0.04 77 1011.4
20260508150503 52 120 3.0 9.0 0.00 0.04 0.04 76 1011.4
20260508150401 52 121 3.0 9.0 0.00 0.04 0.04 76 1011.3
20260508150023 52 120 3.0 7.0 0.00 0.04 0.04 76 1011.4
20260508145901 52 123 3.0 7.0 0.00 0.04 0.04 78 1011.4
20260508145502 52 135 3.0 8.0 0.00 0.04 0.04 77 1011.4
20260508145401 51 136 3.0 8.0 0.00 0.04 0.04 77 1011.4
20260508145002 51 138 3.0 8.0 0.00 0.04 0.04 76 1011.5
20260508144901 51 140 3.0 8.0 0.00 0.04 0.04 77 1011.6
20260508144502 51 141 3.0 8.0 0.00 0.04 0.04 76 1011.6
20260508144401 52 141 3.0 8.0 0.00 0.04 0.04 76 1011.6
20260508144002 51 143 3.0 6.0 0.00 0.04 0.04 78 1011.6
20260508143901 51 143 3.0 6.0 0.00 0.04 0.04 77 1011.6
20260508143501 51 146 3.0 7.0 0.00 0.04 0.04 77 1011.6
20260508143401 51 146 3.0 7.0 0.00 0.04 0.04 77 1011.6
20260508143002 51 147 3.0 7.0 0.00 0.04 0.04 76 1011.6
20260508142901 51 147 3.0 7.0 0.00 0.04 0.04 76 1011.6
20260508142502 51 146 2.0 7.0 0.00 0.04 0.04 76 1011.7
20260508142400 51 145 2.0 7.0 0.00 0.04 0.04 76 1011.7
20260508142023 50 143 3.0 7.0 0.00 0.04 0.04 76 1011.8
20260508141900 50 144 3.0 7.0 0.00 0.04 0.04 77 1011.8
20260508141503 50 144 3.0 6.0 0.00 0.04 0.04 74 1011.8
20260508141400 50 144 3.0 7.0 0.00 0.04 0.04 75 1011.8
20260508141023 50 143 3.0 7.0 0.00 0.04 0.04 73 1011.8
20260508140900 50 143 3.0 7.0 0.00 0.04 0.04 73 1011.8
20260508140502 51 143 2.0 7.0 0.00 0.04 0.04 73 1011.7
20260508140400 51 144 2.0 6.0 0.00 0.04 0.04 73 1011.8
20260508140002 51 143 2.0 4.0 0.00 0.04 0.04 75 1011.8
20260508135900 51 143 2.0 4.0 0.00 0.04 0.04 75 1011.9
20260508135503 51 141 2.0 4.0 0.00 0.04 0.04 73 1011.8
20260508135400 51 141 2.0 4.0 0.00 0.04 0.04 74 1011.9
20260508135002 50 139 2.0 4.0 0.00 0.04 0.04 75 1011.9
20260508134900 50 139 1.0 4.0 0.00 0.04 0.04 75 1011.9
20260508134502 50 139 2.0 5.0 0.00 0.04 0.04 75 1011.9
20260508134400 50 140 2.0 5.0 0.00 0.04 0.04 75 1011.9
20260508134002 50 141 2.0 5.0 0.00 0.04 0.04 74 1012.0
20260508133900 50 141 2.0 5.0 0.00 0.04 0.04 74 1012.0
20260508133502 50 142 1.0 3.0 0.00 0.04 0.04 76 1011.9
20260508133400 50 142 1.0 3.0 0.00 0.04 0.04 75 1011.9
20260508133002 50 143 1.0 3.0 0.00 0.04 0.04 76 1012.0
20260508132900 50 143 1.0 3.0 0.00 0.04 0.04 75 1012.0
20260508132502 50 143 1.0 3.0 0.00 0.04 0.04 76 1011.9
20260508132400 50 143 1.0 3.0 0.00 0.04 0.04 76 1011.9
20260508132003 49 143 1.0 4.0 0.00 0.04 0.04 76 1011.9
20260508131900 49 143 1.0 4.0 0.00 0.04 0.04 76 1011.9
20260508131502 49 142 1.0 4.0 0.00 0.04 0.04 75 1012.0
20260508131359 49 142 1.0 4.0 0.00 0.04 0.04 77 1012.0
20260508131002 48 142 1.0 3.0 0.00 0.04 0.04 76 1011.9
20260508130859 48 142 1.0 3.0 0.00 0.04 0.04 76 1011.9
20260508130502 48 142 1.0 3.0 0.00 0.04 0.04 76 1011.9
20260508130359 48 142 2.0 4.0 0.00 0.04 0.04 76 1011.9
20260508130002 48 142 2.0 4.0 0.00 0.04 0.04 74 1011.8
20260508125859 48 143 2.0 4.0 0.00 0.04 0.04 74 1011.8
20260508125524 48 143 2.0 4.0 0.00 0.04 0.04 74 1011.9
20260508125359 48 143 2.0 4.0 0.00 0.04 0.04 74 1012.0
20260508125002 48 143 2.0 4.0 0.00 0.04 0.04 75 1011.8
20260508124859 48 143 2.0 4.0 0.00 0.04 0.04 75 1011.8
20260508124502 47 143 1.0 3.0 0.00 0.04 0.04 77 1011.9
20260508124359 47 143 1.0 3.0 0.00 0.04 0.04 77 1011.9
20260508124003 47 128 2.0 3.0 0.00 0.04 0.04 76 1011.9
20260508123859 47 109 2.0 3.0 0.00 0.04 0.04 76 1011.8
20260508123523 47 78 2.0 3.0 0.00 0.04 0.04 76 1011.7
20260508123359 47 60 2.0 3.0 0.00 0.04 0.04 77 1011.8
20260508123002 47 41 2.0 3.0 0.00 0.04 0.04 77 1011.8
20260508122859 47 41 1.0 3.0 0.00 0.04 0.04 76 1011.8
20260508122503 47 41 1.0 3.0 0.00 0.04 0.04 77 1011.6
20260508122359 46 41 1.0 4.0 0.00 0.04 0.04 77 1011.8
20260508122002 46 41 1.0 4.0 0.00 0.04 0.04 77 1011.8
20260508121859 46 41 1.0 4.0 0.00 0.04 0.04 77 1011.6
20260508121502 46 41 1.0 4.0 0.00 0.04 0.04 78 1011.6
20260508121359 46 40 1.0 3.0 0.00 0.04 0.04 79 1011.6
20260508121024 46 40 1.0 3.0 0.00 0.04 0.04 80 1011.5
20260508120859 46 40 1.0 3.0 0.00 0.04 0.04 80 1011.4
20260508120503 45 40 1.0 3.0 0.00 0.04 0.04 81 1011.4
20260508120359 45 40 1.0 3.0 0.00 0.04 0.04 82 1011.4
20260508120002 45 40 1.0 3.0 0.00 0.04 0.04 82 1011.4
20260508115858 44 34 1.0 4.0 0.00 0.04 0.04 84 1011.3
20260508115502 44 17 1.0 4.0 0.00 0.04 0.04 84 1011.3
20260508115358 44 353 1.0 4.0 0.00 0.04 0.04 85 1011.4
20260508115003 44 297 0.0 4.0 0.00 0.04 0.04 86 1011.3
20260508114858 44 279 0.0 3.0 0.00 0.04 0.04 87 1011.3
20260508114523 44 279 0.0 3.0 0.00 0.04 0.04 87 1011.1
20260508114358 43 278 0.0 1.0 0.00 0.04 0.04 88 1011.2
20260508114003 43 278 0.0 1.0 0.00 0.04 0.04 88 1011.2
20260508113858 43 278 0.0 1.0 0.00 0.04 0.04 88 1011.1
20260508113502 43 278 0.0 1.0 0.00 0.04 0.04 88 1011.1
20260508113358 43 278 0.0 1.0 0.00 0.04 0.04 88 1011.2
20260508113023 43 278 0.0 1.0 0.00 0.04 0.04 89 1011.1
20260508112858 42 277 0.0 1.0 0.00 0.04 0.04 89 1011.1
20260508112503 42 277 0.0 1.0 0.00 0.04 0.04 89 1011.0
20260508112358 42 277 0.0 1.0 0.00 0.04 0.04 89 1011.1
20260508112002 42 277 0.0 1.0 0.00 0.04 0.04 89 1011.0
20260508111858 42 277 0.0 1.0 0.00 0.04 0.04 89 1010.9
20260508111502 41 277 0.0 1.0 0.00 0.04 0.04 89 1011.0
20260508111358 41 277 0.0 1.0 0.00 0.04 0.04 89 1011.0
20260508111002 41 277 0.0 1.0 0.00 0.04 0.04 88 1010.8
20260508110858 41 277 0.0 1.0 0.00 0.04 0.04 88 1010.9
20260508110502 40 277 0.0 1.0 0.00 0.04 0.04 88 1010.9
20260508110358 40 277 0.0 1.0 0.00 0.04 0.04 88 1010.8
20260508110003 40 0 0.0 0.0 0.00 0.04 0.04 88 1010.9
20260508105857 40 0 0.0 0.0 0.00 0.04 0.04 88 1010.9
20260508105504 40 0 0.0 0.0 0.00 0.04 0.04 87 1010.8
20260508105357 40 0 0.0 0.0 0.00 0.04 0.04 87 1010.8
20260508105002 40 0 0.0 0.0 0.00 0.04 0.04 87 1010.9
20260508104857 40 0 0.0 0.0 0.00 0.04 0.04 87 1010.8
20260508104503 40 0 0.0 0.0 0.00 0.04 0.04 87 1010.9
20260508104357 40 0 0.0 0.0 0.00 0.04 0.04 87 1010.9
20260508104002 40 0 0.0 0.0 0.00 0.04 0.04 87 1010.9
20260508103857 40 277 0.0 1.0 0.00 0.04 0.04 87 1010.9
20260508103502 40 277 0.0 1.0 0.00 0.04 0.04 87 1010.8
20260508103357 40 277 0.0 1.0 0.00 0.04 0.04 87 1010.9
20260508103024 40 277 0.0 2.0 0.00 0.04 0.04 87 1010.9
20260508102857 40 277 0.0 2.0 0.00 0.04 0.04 87 1010.9
20260508102503 41 277 0.0 2.0 0.00 0.04 0.04 87 1010.9
20260508102357 41 277 0.0 2.0 0.00 0.04 0.04 87 1010.8
20260508102023 41 277 0.0 1.0 0.00 0.04 0.04 87 1010.9
20260508101857 41 277 0.0 1.0 0.00 0.04 0.04 87 1010.9
20260508101523 41 277 0.0 1.0 0.00 0.04 0.04 87 1010.9
20260508101357 41 277 0.0 1.0 0.00 0.04 0.04 87 1010.8
20260508101003 41 0 0.0 0.0 0.00 0.04 0.04 87 1010.9
20260508100857 41 0 0.0 0.0 0.00 0.04 0.04 87 1010.9
20260508100503 41 277 0.0 1.0 0.00 0.04 0.04 87 1010.9
20260508100357 41 277 0.0 1.0 0.00 0.04 0.04 87 1010.9
20260508100002 41 277 0.0 1.0 0.00 0.04 0.04 87 1010.9
20260508095856 41 277 0.0 1.0 0.00 0.04 0.04 86 1011.0
20260508095503 41 277 0.0 1.0 0.00 0.04 0.04 86 1011.0
20260508095356 41 277 0.0 1.0 0.00 0.04 0.04 86 1010.9
20260508095003 41 0 0.0 0.0 0.00 0.04 0.04 86 1010.9
20260508094856 41 0 0.0 0.0 0.00 0.04 0.04 86 1011.0
20260508094502 41 277 0.0 2.0 0.00 0.04 0.04 86 1010.9
20260508094356 41 277 0.0 2.0 0.00 0.04 0.04 86 1010.9
20260508094002 42 277 0.0 2.0 0.00 0.04 0.04 86 1011.0
20260508093856 42 277 1.0 2.0 0.00 0.04 0.04 86 1011.0
20260508093503 42 277 1.0 2.0 0.00 0.04 0.04 86 1011.0
20260508093356 42 277 1.0 2.0 0.00 0.04 0.04 86 1011.0
20260508093002 42 277 1.0 2.0 0.00 0.04 0.04 86 1010.9
20260508092856 42 277 0.0 2.0 0.00 0.04 0.04 86 1011.0
20260508092502 42 0 0.0 0.0 0.00 0.04 0.04 85 1010.9
20260508092356 42 0 0.0 0.0 0.00 0.04 0.04 86 1011.0
20260508092002 42 0 0.0 0.0 0.00 0.04 0.04 86 1011.0
20260508091856 42 0 0.0 0.0 0.00 0.04 0.04 86 1011.0
20260508091502 42 0 0.0 0.0 0.00 0.04 0.04 86 1011.0
20260508091356 42 0 0.0 0.0 0.00 0.04 0.04 86 1011.0
20260508091003 42 0 0.0 0.0 0.00 0.04 0.04 86 1011.0
20260508090856 42 0 0.0 0.0 0.00 0.04 0.04 86 1011.0
20260508090503 42 0 0.0 0.0 0.00 0.04 0.04 86 1011.1
20260508090356 42 0 0.0 0.0 0.00 0.04 0.04 86 1011.1
20260508090003 42 277 0.0 1.0 0.00 0.04 0.04 86 1011.1
20260508085856 42 277 0.0 1.0 0.00 0.04 0.04 86 1011.1
20260508085502 42 277 0.0 2.0 0.00 0.04 0.04 86 1011.2
20260508085356 42 275 1.0 4.0 0.00 0.04 0.04 86 1011.3
20260508085003 42 275 1.0 4.0 0.00 0.04 0.04 86 1011.3
20260508084855 42 275 1.0 4.0 0.00 0.04 0.04 86 1011.2
20260508084502 42 274 1.0 4.0 0.00 0.04 0.04 86 1011.2
20260508084355 42 273 0.0 4.0 0.00 0.04 0.04 86 1011.1
20260508084003 42 0 0.0 0.0 0.00 0.04 0.04 86 1011.0
20260508083855 43 0 0.0 0.0 0.00 0.04 0.04 86 1010.9
20260508083503 43 0 0.0 0.0 0.00 0.04 0.04 86 1011.0
20260508083355 43 0 0.0 0.0 0.00 0.04 0.04 85 1011.0
20260508083003 43 0 0.0 0.0 0.00 0.04 0.04 85 1011.0
20260508082855 43 0 0.0 0.0 0.00 0.04 0.04 85 1011.0
20260508082502 43 0 0.0 0.0 0.00 0.04 0.04 85 1011.1
20260508082355 43 0 0.0 0.0 0.00 0.04 0.04 85 1011.1
20260508082003 43 0 0.0 0.0 0.00 0.04 0.04 85 1011.0
20260508081855 43 0 0.0 0.0 0.00 0.04 0.04 85 1011.1
20260508081502 43 0 0.0 0.0 0.00 0.04 0.04 85 1011.1
20260508081355 43 0 0.0 0.0 0.00 0.04 0.04 85 1011.1
20260508081023 43 0 0.0 0.0 0.00 0.04 0.04 85 1011.2
20260508080855 43 0 0.0 0.0 0.00 0.04 0.04 85 1011.2
20260508080503 43 0 0.0 0.0 0.00 0.04 0.04 85 1011.2
20260508080355 43 0 0.0 0.0 0.00 0.04 0.04 86 1011.1
20260508080003 43 0 0.0 0.0 0.00 0.04 0.04 86 1011.1
20260508075855 43 0 0.0 0.0 0.00 0.04 0.04 86 1011.2
20260508075502 43 0 0.0 0.0 0.00 0.04 0.04 86 1011.1
20260508075355 43 0 0.0 0.0 0.00 0.04 0.04 86 1011.1
20260508075003 43 0 0.0 0.0 0.00 0.04 0.04 86 1011.0
20260508074854 43 0 0.0 0.0 0.00 0.04 0.04 86 1011.0
20260508074503 43 0 0.0 0.0 0.00 0.04 0.04 86 1011.1
20260508074354 43 0 0.0 0.0 0.00 0.04 0.04 86 1011.0
20260508074024 43 0 0.0 0.0 0.00 0.04 0.04 86 1011.1
20260508073854 43 0 0.0 0.0 0.00 0.04 0.04 87 1011.1
20260508073502 43 0 0.0 0.0 0.00 0.04 0.04 87 1011.0
20260508073354 43 0 0.0 0.0 0.00 0.04 0.04 87 1011.1
20260508073003 44 0 0.0 0.0 0.00 0.04 0.04 87 1011.1
20260508072854 44 0 0.0 0.0 0.00 0.04 0.04 87 1011.2
20260508072502 44 0 0.0 0.0 0.00 0.04 0.04 87 1011.2
20260508072354 44 0 0.0 0.0 0.00 0.04 0.04 88 1011.2
20260508072002 44 0 0.0 0.0 0.00 0.04 0.04 88 1011.1
20260508071854 44 0 0.0 0.0 0.00 0.04 0.04 88 1011.1
20260508071503 44 0 0.0 0.0 0.00 0.04 0.04 88 1011.1
20260508071354 44 0 0.0 0.0 0.00 0.04 0.04 88 1011.0
20260508071003 44 273 0.0 2.0 0.00 0.04 0.04 88 1010.9
20260508070854 44 273 0.0 2.0 0.00 0.04 0.04 88 1011.0
20260508070503 44 273 0.0 2.0 0.00 0.04 0.04 88 1011.0
20260508070354 44 272 0.0 2.0 0.00 0.04 0.04 89 1011.0
20260508070003 44 272 0.0 2.0 0.00 0.04 0.04 89 1011.2
20260508065854 44 272 0.0 2.0 0.00 0.04 0.04 89 1011.2
20260508065503 44 272 0.0 2.0 0.00 0.04 0.04 88 1011.2
20260508065354 44 272 0.0 2.0 0.00 0.04 0.04 88 1011.2
20260508065003 44 0 0.0 0.0 0.00 0.04 0.04 88 1011.1
20260508064853 44 0 0.0 0.0 0.00 0.04 0.04 88 1011.1
20260508064503 44 0 0.0 0.0 0.00 0.04 0.04 88 1011.1
20260508064353 44 0 0.0 0.0 0.00 0.04 0.04 88 1011.1
20260508064003 44 0 0.0 0.0 0.00 0.04 0.04 87 1011.0
20260508063853 44 0 0.0 0.0 0.00 0.04 0.04 87 1011.1
20260508063502 44 0 0.0 0.0 0.00 0.04 0.04 87 1011.0
20260508063353 44 0 0.0 0.0 0.00 0.04 0.04 87 1011.1
20260508063003 44 0 0.0 0.0 0.00 0.04 0.04 87 1011.0
20260508062853 44 0 0.0 0.0 0.00 0.04 0.04 87 1011.1
20260508062524 44 0 0.0 0.0 0.00 0.04 0.04 87 1011.1
20260508062353 44 0 0.0 0.0 0.00 0.04 0.04 87 1011.1
20260508062023 44 0 0.0 0.0 0.00 0.04 0.04 87 1011.2
20260508061853 44 0 0.0 0.0 0.00 0.04 0.04 86 1011.2
20260508061524 44 0 0.0 0.0 0.00 0.04 0.04 86 1011.2
20260508061353 45 0 0.0 0.0 0.00 0.04 0.04 86 1011.2
20260508061003 45 0 0.0 0.0 0.00 0.04 0.04 86 1011.3
20260508060853 45 0 0.0 0.0 0.01 0.04 0.04 86 1011.3
20260508060502 45 0 0.0 0.0 0.01 0.04 0.04 85 1011.3
20260508060353 45 0 0.0 0.0 0.01 0.04 0.04 85 1011.3
20260508060003 45 0 0.0 0.0 0.01 0.04 0.04 84 1011.3
20260508055853 45 0 0.0 0.0 0.01 0.04 0.04 84 1011.2
20260508055503 45 0 0.0 0.0 0.02 0.04 0.04 85 1011.1
20260508055353 45 0 0.0 0.0 0.03 0.04 0.04 84 1011.2
20260508055003 46 0 0.0 0.0 0.03 0.04 0.04 84 1011.1
20260508054852 46 0 0.0 0.0 0.03 0.04 0.04 84 1011.2
20260508054504 46 0 0.0 0.0 0.04 0.04 0.04 84 1011.1
20260508054352 46 0 0.0 0.0 0.04 0.04 0.04 83 1011.1
20260508054003 46 0 0.0 0.0 0.04 0.04 0.04 83 1011.0
20260508053852 46 0 0.0 0.0 0.04 0.04 0.04 83 1011.1
20260508053503 46 0 0.0 0.0 0.04 0.04 0.04 82 1011.3
20260508053352 47 0 0.0 0.0 0.04 0.04 0.04 82 1011.4
20260508053003 47 272 0.0 1.0 0.04 0.04 0.04 81 1011.5
20260508052852 47 272 0.0 3.0 0.04 0.04 0.04 81 1011.6
20260508052503 47 272 1.0 3.0 0.04 0.04 0.04 80 1011.6
20260508052352 47 272 1.0 3.0 0.04 0.04 0.04 80 1011.6
20260508052002 48 272 2.0 4.0 0.04 0.04 0.04 80 1011.8
20260508051852 48 272 2.0 4.0 0.04 0.04 0.04 80 1011.7
20260508051503 48 273 2.0 6.0 0.04 0.04 0.04 80 1011.7
20260508051352 48 273 2.0 6.0 0.04 0.04 0.04 78 1011.7
20260508051024 48 275 2.0 6.0 0.03 0.03 0.03 77 1011.7
20260508050852 48 275 3.0 8.0 0.03 0.03 0.03 77 1011.7
20260508050503 48 275 3.0 10.0 0.03 0.03 0.03 76 1011.7
20260508050352 49 280 5.0 10.0 0.03 0.03 0.03 75 1011.7
20260508050003 49 289 6.0 13.0 0.03 0.03 0.03 75 1011.9
20260508045852 49 295 8.0 15.0 0.03 0.03 0.03 74 1011.9
20260508045503 50 295 8.0 15.0 0.02 0.02 0.02 72 1012.0
20260508045352 50 289 7.0 15.0 0.01 0.01 0.01 71 1011.9
20260508045003 51 284 6.0 15.0 0.01 0.01 0.01 69 1011.9
20260508044852 51 272 5.0 11.0 0.01 0.01 0.01 68 1011.7
20260508044503 51 262 4.0 10.0 0.00 0.00 0.00 66 1011.8
20260508044352 51 262 3.0 8.0 0.00 0.00 0.00 64 1011.5
20260508044003 51 244 3.0 6.0 0.00 0.00 0.00 63 1011.4
20260508043852 51 240 2.0 4.0 0.00 0.00 0.00 63 1011.4
20260508043502 51 238 2.0 5.0 0.00 0.00 0.00 63 1011.3
20260508043352 51 235 2.0 5.0 0.00 0.00 0.00 63 1011.3
20260508043004 51 226 2.0 5.0 0.00 0.00 0.00 63 1011.3
20260508042851 51 220 2.0 5.0 0.00 0.00 0.00 63 1011.2
20260508042524 51 211 2.0 5.0 0.00 0.00 0.00 63 1011.3
20260508042351 51 210 2.0 4.0 0.00 0.00 0.00 62 1011.3
20260508042003 51 207 2.0 4.0 0.00 0.00 0.00 62 1011.3
20260508041851 51 205 2.0 4.0 0.00 0.00 0.00 62 1011.1
20260508041524 51 201 2.0 5.0 0.00 0.00 0.00 61 1011.2
20260508041351 51 200 2.0 5.0 0.00 0.00 0.00 60 1011.2
20260508041004 51 199 2.0 5.0 0.00 0.00 0.00 58 1011.1
20260508040851 51 199 1.0 5.0 0.00 0.00 0.00 58 1011.2
20260508040524 51 196 1.0 3.0 0.00 0.00 0.00 58 1011.2
20260508040351 51 196 1.0 2.0 0.00 0.00 0.00 58 1011.1
20260508040024 51 196 1.0 4.0 0.00 0.00 0.00 58 1011.3
20260508035851 51 195 2.0 4.0 0.00 0.00 0.00 57 1011.3
20260508035503 52 217 2.0 7.0 0.00 0.00 0.00 57 1011.2
20260508035351 52 235 2.0 7.0 0.00 0.00 0.00 57 1011.2
20260508035004 52 253 2.0 7.0 0.00 0.00 0.00 56 1011.2
20260508034851 52 265 2.0 7.0 0.00 0.00 0.00 56 1011.2
20260508034524 52 271 2.0 4.0 0.00 0.00 0.00 55 1011.2
20260508034351 52 271 2.0 4.0 0.00 0.00 0.00 56 1011.2
20260508034003 52 271 1.0 4.0 0.00 0.00 0.00 55 1011.3
20260508033851 52 271 1.0 4.0 0.00 0.00 0.00 55 1011.3
20260508033524 52 271 1.0 4.0 0.00 0.00 0.00 55 1011.4
20260508033351 52 271 1.0 3.0 0.00 0.00 0.00 56 1011.5
20260508033003 52 271 1.0 4.0 0.00 0.00 0.00 55 1011.4
20260508032851 52 271 2.0 4.0 0.00 0.00 0.00 54 1011.5
20260508032504 52 272 2.0 4.0 0.00 0.00 0.00 54 1011.5
20260508032351 52 272 1.0 4.0 0.00 0.00 0.00 54 1011.6
20260508032024 52 272 1.0 3.0 0.00 0.00 0.00 54 1011.4
20260508031851 52 272 1.0 3.0 0.00 0.00 0.00 54 1011.5
20260508031503 52 272 1.0 3.0 0.00 0.00 0.00 54 1011.5
20260508031350 52 272 1.0 3.0 0.00 0.00 0.00 54 1011.5
20260508031004 52 272 1.0 3.0 0.00 0.00 0.00 54 1011.6
20260508030850 52 272 1.0 3.0 0.00 0.00 0.00 54 1011.5
20260508030503 52 272 1.0 3.0 0.00 0.00 0.00 54 1011.5
20260508030350 52 272 0.0 2.0 0.00 0.00 0.00 54 1011.5
20260508030003 52 272 0.0 2.0 0.00 0.00 0.00 54 1011.4
20260508025850 52 272 0.0 2.0 0.00 0.00 0.00 54 1011.4
20260508025504 52 272 0.0 1.0 0.00 0.00 0.00 53 1011.4
20260508025350 52 272 0.0 2.0 0.00 0.00 0.00 53 1011.3
20260508025003 52 272 1.0 3.0 0.00 0.00 0.00 53 1011.4
20260508024850 52 272 1.0 3.0 0.00 0.00 0.00 53 1011.3
20260508024524 52 272 1.0 3.0 0.00 0.00 0.00 53 1011.3
20260508024350 52 272 1.0 3.0 0.00 0.00 0.00 52 1011.3
20260508024004 52 272 1.0 3.0 0.00 0.00 0.00 52 1011.2
20260508023850 52 272 2.0 3.0 0.00 0.00 0.00 52 1011.2
20260508023503 52 272 2.0 4.0 0.00 0.00 0.00 52 1011.3
20260508023350 52 272 2.0 4.0 0.00 0.00 0.00 52 1011.2
20260508023024 52 272 2.0 4.0 0.00 0.00 0.00 52 1011.2
20260508022850 52 271 2.0 4.0 0.00 0.00 0.00 53 1011.2
20260508022503 52 271 2.0 4.0 0.00 0.00 0.00 53 1011.2
20260508022350 52 271 2.0 4.0 0.00 0.00 0.00 53 1011.2
20260508022004 52 271 2.0 4.0 0.00 0.00 0.00 53 1011.2
20260508021850 52 271 2.0 4.0 0.00 0.00 0.00 53 1011.2
20260508021524 52 271 2.0 6.0 0.00 0.00 0.00 52 1011.1
20260508021349 52 271 3.0 6.0 0.00 0.00 0.00 52 1011.1
20260508021004 52 274 2.0 6.0 0.00 0.00 0.00 52 1011.2
20260508020849 52 277 3.0 6.0 0.00 0.00 0.00 52 1011.2
20260508020503 52 282 3.0 6.0 0.00 0.00 0.00 52 1011.1
20260508020349 52 287 3.0 6.0 0.00 0.00 0.00 52 1011.2
20260508020003 52 289 2.0 6.0 0.00 0.00 0.00 53 1011.3
20260508015849 52 288 3.0 6.0 0.00 0.00 0.00 52 1011.1
20260508015504 52 281 3.0 7.0 0.00 0.00 0.00 52 1011.2
20260508015349 52 276 3.0 7.0 0.00 0.00 0.00 52 1011.3
20260508015003 52 276 4.0 8.0 0.00 0.00 0.00 52 1011.2
20260508014849 52 280 4.0 8.0 0.00 0.00 0.00 52 1011.2
20260508014503 52 291 4.0 8.0 0.00 0.00 0.00 52 1011.2
20260508014349 52 294 4.0 8.0 0.00 0.00 0.00 52 1011.1
20260508014004 53 296 4.0 8.0 0.00 0.00 0.00 52 1011.1
20260508013849 53 295 4.0 8.0 0.00 0.00 0.00 52 1011.0
20260508013503 53 287 4.0 8.0 0.00 0.00 0.00 52 1011.1
20260508013349 53 286 4.0 10.0 0.00 0.00 0.00 52 1011.1
20260508013004 53 291 5.0 11.0 0.00 0.00 0.00 52 1011.1
20260508012849 53 287 6.0 13.0 0.00 0.00 0.00 52 1011.2
20260508012503 54 284 5.0 13.0 0.00 0.00 0.00 52 1011.1
20260508012349 54 284 5.0 13.0 0.00 0.00 0.00 51 1011.0
20260508012003 54 275 4.0 13.0 0.00 0.00 0.00 50 1011.1
20260508011848 54 276 4.0 11.0 0.00 0.00 0.00 48 1010.9
20260508011504 54 279 4.0 11.0 0.00 0.00 0.00 47 1011.0
20260508011348 54 278 4.0 11.0 0.00 0.00 0.00 48 1010.9
20260508011004 54 278 3.0 11.0 0.00 0.00 0.00 48 1010.8
20260508010848 54 279 3.0 6.0 0.00 0.00 0.00 48 1010.8
20260508010504 54 280 4.0 10.0 0.00 0.00 0.00 48 1010.7
20260508010348 54 284 4.0 10.0 0.00 0.00 0.00 47 1010.6
20260508010004 54 291 4.0 10.0 0.00 0.00 0.00 47 1010.6
20260508005848 54 294 3.0 10.0 0.00 0.00 0.00 47 1010.5
20260508005503 54 303 2.0 8.0 0.00 0.00 0.00 46 1010.6
20260508005348 54 306 2.0 8.0 0.00 0.00 0.00 46 1010.6
20260508005004 54 304 2.0 4.0 0.00 0.00 0.00 46 1010.6
20260508004848 54 305 2.0 8.0 0.00 0.00 0.00 47 1010.5
20260508004503 54 293 3.0 8.0 0.00 0.00 0.00 47 1010.6
20260508004348 54 295 3.0 8.0 0.00 0.00 0.00 47 1010.5
20260508004003 54 292 3.0 8.0 0.00 0.00 0.00 46 1010.5
20260508003848 54 288 3.0 7.0 0.00 0.00 0.00 45 1010.5
20260508003501 54 294 3.0 7.0 0.00 0.00 0.00 46 1010.4
20260508003318 54 287 3.0 8.0 0.00 0.00 0.00 46 1010.5
20260508003001 54 283 3.0 10.0 0.00 0.00 0.00 46 1010.5
20260508002818 54 282 4.0 10.0 0.00 0.00 0.00 46 1010.5
20260508002501 54 287 4.0 10.0 0.00 0.00 0.00 45 1010.5
20260508002318 55 289 4.0 10.0 0.00 0.00 0.00 45 1010.5
20260508002001 55 291 4.0 9.0 0.00 0.00 0.00 45 1010.6
20260508001818 55 292 4.0 12.0 0.00 0.00 0.00 44 1010.6
20260508001501 55 283 5.0 12.0 0.00 0.00 0.00 44 1010.4
20260508001318 55 281 5.0 12.0 0.00 0.00 0.00 43 1010.4
20260508001001 55 279 6.0 12.0 0.00 0.00 0.00 44 1010.5
20260508000817 55 277 7.0 11.0 0.00 0.00 0.00 45 1010.4
20260508000501 55 280 7.0 11.0 0.00 0.00 0.00 44 1010.5
20260508000319 55 279 7.0 13.0 0.00 0.00 0.00 44 1010.6
20260508000001 55 280 6.0 13.0 0.00 0.00 0.00 44 1010.4
20260507235817 55 280 5.0 13.0 0.00 0.00 0.00 44 1010.5
20260507235501 56 286 5.0 13.0 0.00 0.00 0.00 44 1010.5
20260507235317 56 286 5.0 12.0 0.00 0.00 0.00 44 1010.4
20260507235001 56 280 6.0 14.0 0.00 0.00 0.00 44 1010.4
20260507234817 56 279 8.0 15.0 0.00 0.00 0.00 44 1010.4
20260507234501 56 277 8.0 15.0 0.00 0.00 0.00 42 1010.3
20260507234317 56 277 9.0 15.0 0.00 0.00 0.00 43 1010.3
20260507234001 56 280 10.0 18.0 0.00 0.00 0.00 42 1010.3
20260507233817 56 278 9.0 18.0 0.00 0.00 0.00 42 1010.3
20260507233501 56 270 10.0 18.0 0.00 0.00 0.00 42 1010.3
20260507233317 56 268 10.0 18.0 0.00 0.00 0.00 42 1010.3
20260507233001 57 264 9.0 17.0 0.00 0.00 0.00 42 1010.4
20260507232817 57 261 8.0 17.0 0.00 0.00 0.00 42 1010.4
20260507232501 57 265 8.0 17.0 0.00 0.00 0.00 42 1010.3
20260507232317 57 266 8.0 14.0 0.00 0.00 0.00 43 1010.3
20260507232001 57 269 8.0 14.0 0.00 0.00 0.00 43 1010.3
20260507231817 57 275 7.0 14.0 0.00 0.00 0.00 43 1010.3
20260507231501 57 283 7.0 14.0 0.00 0.00 0.00 43 1010.4
20260507231317 57 283 5.0 12.0 0.00 0.00 0.00 43 1010.3
20260507231001 57 277 6.0 12.0 0.00 0.00 0.00 42 1010.3
20260507230817 57 269 6.0 12.0 0.00 0.00 0.00 43 1010.3
20260507230502 57 265 6.0 12.0 0.00 0.00 0.00 45 1010.3
20260507230316 57 263 6.0 12.0 0.00 0.00 0.00 45 1010.3
20260507230022 57 266 7.0 16.0 0.00 0.00 0.00 49 1010.4
20260507225816 57 270 7.0 16.0 0.00 0.00 0.00 43 1010.4
20260507225501 56 272 7.0 16.0 0.00 0.00 0.00 43 1010.5
20260507225316 56 281 6.0 16.0 0.00 0.00 0.00 43 1010.5
20260507225023 56 286 6.0 13.0 0.00 0.00 0.00 43 1010.6
20260507224816 56 288 6.0 13.0 0.00 0.00 0.00 42 1010.6
20260507224501 56 286 7.0 12.0 0.00 0.00 0.00 42 1010.5
20260507224316 56 284 8.0 14.0 0.00 0.00 0.00 42 1010.5
20260507224001 56 285 9.0 15.0 0.00 0.00 0.00 42 1010.6
20260507223816 56 284 9.0 15.0 0.00 0.00 0.00 42 1010.6
20260507223502 56 281 10.0 21.0 0.00 0.00 0.00 42 1010.5
20260507223316 57 282 10.0 21.0 0.00 0.00 0.00 42 1010.6
20260507223001 57 281 10.0 21.0 0.00 0.00 0.00 43 1010.6
20260507222816 56 280 9.0 21.0 0.00 0.00 0.00 46 1010.6
20260507222501 56 279 9.0 19.0 0.00 0.00 0.00 45 1010.7
20260507222316 56 277 8.0 19.0 0.00 0.00 0.00 41 1010.6
20260507222002 56 281 7.0 17.0 0.00 0.00 0.00 42 1010.6
20260507221816 56 285 7.0 14.0 0.00 0.00 0.00 42 1010.5
20260507221501 56 288 7.0 16.0 0.00 0.00 0.00 42 1010.5
20260507221316 56 287 8.0 16.0 0.00 0.00 0.00 40 1010.6
20260507221001 56 285 9.0 18.0 0.00 0.00 0.00 41 1010.4
20260507220816 56 291 10.0 20.0 0.00 0.00 0.00 41 1010.5
20260507220522 56 292 9.0 20.0 0.00 0.00 0.00 42 1010.5
20260507220315 56 297 9.0 20.0 0.00 0.00 0.00 42 1010.5
20260507220002 56 293 7.0 20.0 0.00 0.00 0.00 41 1010.4
20260507215815 56 289 7.0 20.0 0.00 0.00 0.00 41 1010.5
20260507215501 56 291 7.0 13.0 0.00 0.00 0.00 41 1010.4
20260507215315 56 287 7.0 13.0 0.00 0.00 0.00 42 1010.4
20260507215001 57 290 7.0 13.0 0.00 0.00 0.00 40 1010.5
20260507214815 57 290 7.0 13.0 0.00 0.00 0.00 40 1010.4
20260507214502 57 290 8.0 13.0 0.00 0.00 0.00 40 1010.5
20260507214315 57 297 7.0 13.0 0.00 0.00 0.00 40 1010.5
20260507214001 57 305 8.0 13.0 0.00 0.00 0.00 40 1010.4
20260507213815 57 295 8.0 13.0 0.00 0.00 0.00 40 1010.5
20260507213502 57 283 7.0 14.0 0.00 0.00 0.00 40 1010.4
20260507213315 58 269 7.0 14.0 0.00 0.00 0.00 39 1010.3
20260507213023 57 256 7.0 16.0 0.00 0.00 0.00 40 1010.2
20260507212815 57 263 8.0 16.0 0.00 0.00 0.00 40 1010.3
20260507212501 57 271 8.0 16.0 0.00 0.00 0.00 41 1010.3
20260507212315 57 279 8.0 16.0 0.00 0.00 0.00 40 1010.4
20260507212001 57 287 8.0 14.0 0.00 0.00 0.00 41 1010.5
20260507211815 56 295 8.0 15.0 0.00 0.00 0.00 41 1010.5
20260507211502 56 301 8.0 16.0 0.00 0.00 0.00 42 1010.4
20260507211315 56 302 8.0 16.0 0.00 0.00 0.00 40 1010.5
20260507211001 56 299 9.0 16.0 0.00 0.00 0.00 40 1010.5
20260507210815 56 293 9.0 16.0 0.00 0.00 0.00 41 1010.5
20260507210522 56 286 9.0 16.0 0.00 0.00 0.00 41 1010.6
20260507210314 56 290 10.0 17.0 0.00 0.00 0.00 41 1010.5
20260507210002 56 291 9.0 17.0 0.00 0.00 0.00 40 1010.5
20260507205814 56 297 10.0 18.0 0.00 0.00 0.00 40 1010.5
20260507205502 56 306 10.0 18.0 0.00 0.00 0.00 39 1010.6
20260507205314 56 305 10.0 18.0 0.00 0.00 0.00 40 1010.6
20260507205002 56 304 10.0 18.0 0.00 0.00 0.00 39 1010.6
20260507204814 56 300 10.0 18.0 0.00 0.00 0.00 40 1010.6
20260507204522 56 291 10.0 20.0 0.00 0.00 0.00 40 1010.5
20260507204314 56 285 11.0 20.0 0.00 0.00 0.00 40 1010.5
20260507204001 56 277 11.0 24.0 0.00 0.00 0.00 40 1010.5
20260507203814 56 278 11.0 24.0 0.00 0.00 0.00 40 1010.7
20260507203502 56 283 10.0 24.0 0.00 0.00 0.00 39 1010.6
20260507203314 56 283 10.0 24.0 0.00 0.00 0.00 40 1010.6
20260507203002 56 293 10.0 23.0 0.00 0.00 0.00 40 1010.5
20260507202814 56 294 11.0 23.0 0.00 0.00 0.00 39 1010.6
20260507202502 57 299 11.0 23.0 0.00 0.00 0.00 39 1010.5
20260507202314 57 299 12.0 23.0 0.00 0.00 0.00 38 1010.6
20260507202003 57 296 11.0 19.0 0.00 0.00 0.00 38 1010.6
20260507201814 58 291 10.0 19.0 0.00 0.00 0.00 37 1010.5
20260507201502 58 279 9.0 18.0 0.00 0.00 0.00 37 1010.6
20260507201314 58 271 9.0 20.0 0.00 0.00 0.00 38 1010.6
20260507201023 58 267 9.0 20.0 0.00 0.00 0.00 40 1010.5
20260507200814 58 265 9.0 20.0 0.00 0.00 0.00 40 1010.5
20260507200502 58 266 9.0 20.0 0.00 0.00 0.00 39 1010.6
20260507200314 58 276 9.0 21.0 0.00 0.00 0.00 41 1010.5
20260507200022 57 286 10.0 21.0 0.00 0.00 0.00 41 1010.5
20260507195814 57 295 10.0 21.0 0.00 0.00 0.00 41 1010.5
20260507195502 57 294 10.0 21.0 0.00 0.00 0.00 40 1010.5
20260507195314 57 288 10.0 18.0 0.00 0.00 0.00 41 1010.5
20260507195002 57 284 10.0 20.0 0.00 0.00 0.00 41 1010.6
20260507194813 57 279 10.0 20.0 0.00 0.00 0.00 41 1010.6
20260507194502 57 279 10.0 20.0 0.00 0.00 0.00 40 1010.6
20260507194313 58 280 8.0 20.0 0.00 0.00 0.00 41 1010.6
20260507194001 58 270 8.0 18.0 0.00 0.00 0.00 39 1010.6
20260507193813 58 264 7.0 18.0 0.00 0.00 0.00 40 1010.7
20260507193524 58 256 7.0 18.0 0.00 0.00 0.00 42 1010.5
20260507193313 58 256 8.0 18.0 0.00 0.00 0.00 42 1010.6
20260507193002 57 264 8.0 17.0 0.00 0.00 0.00 41 1010.6
20260507192813 57 269 8.0 17.0 0.00 0.00 0.00 41 1010.6
20260507192522 57 272 8.0 17.0 0.00 0.00 0.00 41 1010.6
20260507192313 57 271 8.0 18.0 0.00 0.00 0.00 41 1010.6
20260507192024 57 269 8.0 18.0 0.00 0.00 0.00 41 1010.6
20260507191813 57 265 8.0 18.0 0.00 0.00 0.00 42 1010.7
20260507191502 57 261 7.0 18.0 0.00 0.00 0.00 42 1010.7
20260507191313 57 259 7.0 15.0 0.00 0.00 0.00 41 1010.8
20260507191001 57 255 7.0 15.0 0.00 0.00 0.00 42 1010.8
20260507190813 57 262 8.0 17.0 0.00 0.00 0.00 42 1010.8
20260507190503 57 273 8.0 17.0 0.00 0.00 0.00 44 1010.9
20260507190313 57 275 9.0 17.0 0.00 0.00 0.00 42 1010.9
20260507190022 57 276 10.0 22.0 0.00 0.00 0.00 42 1010.8
20260507185813 57 273 9.0 22.0 0.00 0.00 0.00 41 1010.8
20260507185502 57 268 9.0 22.0 0.00 0.00 0.00 42 1010.9
20260507185313 57 259 7.0 22.0 0.00 0.00 0.00 42 1010.9
20260507185002 57 249 6.0 12.0 0.00 0.00 0.00 42 1010.9
20260507184813 57 251 7.0 19.0 0.00 0.00 0.00 43 1010.9
20260507184502 57 260 8.0 19.0 0.00 0.00 0.00 42 1010.9
20260507184312 57 270 9.0 19.0 0.00 0.00 0.00 42 1010.9
20260507184022 57 280 10.0 19.0 0.00 0.00 0.00 42 1010.9
20260507183812 57 285 8.0 19.0 0.00 0.00 0.00 43 1010.9
20260507183502 58 283 8.0 16.0 0.00 0.00 0.00 42 1010.9
20260507183312 58 280 8.0 16.0 0.00 0.00 0.00 42 1010.9
20260507183002 58 276 8.0 14.0 0.00 0.00 0.00 43 1010.9
20260507182812 58 277 9.0 15.0 0.00 0.00 0.00 43 1010.8
20260507182501 57 274 9.0 15.0 0.00 0.00 0.00 43 1011.0
20260507182312 58 275 9.0 15.0 0.00 0.00 0.00 43 1011.0
20260507182002 58 283 9.0 17.0 0.00 0.00 0.00 43 1011.0
20260507181812 58 283 10.0 17.0 0.00 0.00 0.00 43 1010.9
20260507181502 58 284 10.0 17.0 0.00 0.00 0.00 43 1011.0
20260507181312 58 283 8.0 17.0 0.00 0.00 0.00 43 1010.9
20260507181001 57 266 7.0 15.0 0.00 0.00 0.00 44 1011.0
20260507180812 57 262 7.0 15.0 0.00 0.00 0.00 46 1010.9
20260507180502 56 268 7.0 15.0 0.00 0.00 0.00 44 1010.9
20260507180312 56 270 9.0 15.0 0.00 0.00 0.00 44 1011.0
20260507180002 57 276 9.0 16.0 0.00 0.00 0.00 43 1011.0
20260507175812 57 275 9.0 16.0 0.00 0.00 0.00 43 1010.9
20260507175522 57 269 8.0 16.0 0.00 0.00 0.00 43 1011.0
20260507175312 57 268 9.0 17.0 0.00 0.00 0.00 44 1011.0
20260507175002 57 270 9.0 18.0 0.00 0.00 0.00 45 1011.0
20260507174812 57 271 10.0 18.0 0.00 0.00 0.00 45 1011.1
20260507174502 57 274 10.0 18.0 0.00 0.00 0.00 45 1011.1
20260507174311 57 276 9.0 18.0 0.00 0.00 0.00 46 1011.0
20260507174001 57 275 8.0 17.0 0.00 0.00 0.00 45 1011.1
20260507173811 57 270 7.0 13.0 0.00 0.00 0.00 45 1011.0
20260507173502 57 270 7.0 15.0 0.00 0.00 0.00 45 1011.0
20260507173311 57 263 7.0 15.0 0.00 0.00 0.00 45 1011.1
20260507173002 57 259 7.0 15.0 0.00 0.00 0.00 45 1011.0
20260507172811 57 260 6.0 15.0 0.00 0.00 0.00 44 1011.1
20260507172524 57 258 6.0 16.0 0.00 0.00 0.00 44 1011.1
20260507172311 57 266 7.0 16.0 0.00 0.00 0.00 43 1011.1
20260507172003 57 270 8.0 16.0 0.00 0.00 0.00 44 1011.1
20260507171811 57 274 8.0 16.0 0.00 0.00 0.00 44 1011.1
20260507171502 57 276 8.0 13.0 0.00 0.00 0.00 44 1011.2
20260507171311 57 278 7.0 13.0 0.00 0.00 0.00 44 1011.1
20260507171002 57 281 7.0 13.0 0.00 0.00 0.00 43 1011.1
20260507170811 57 277 7.0 12.0 0.00 0.00 0.00 43 1011.1
20260507170502 57 281 7.0 16.0 0.00 0.00 0.00 43 1011.2
20260507170311 57 277 7.0 16.0 0.00 0.00 0.00 42 1011.1
20260507170022 57 274 8.0 16.0 0.00 0.00 0.00 43 1011.2
20260507165811 57 273 7.0 16.0 0.00 0.00 0.00 43 1011.2
20260507165523 57 265 6.0 13.0 0.00 0.00 0.00 43 1011.2
20260507165311 57 265 5.0 13.0 0.00 0.00 0.00 43 1011.3
20260507165002 57 254 5.0 13.0 0.00 0.00 0.00 44 1011.3
20260507164811 57 258 6.0 14.0 0.00 0.00 0.00 43 1011.3
20260507164502 57 264 6.0 14.0 0.00 0.00 0.00 44 1011.3
20260507164311 57 269 6.0 14.0 0.00 0.00 0.00 43 1011.3
20260507164002 57 278 6.0 14.0 0.00 0.00 0.00 43 1011.4
20260507163810 57 279 5.0 11.0 0.00 0.00 0.00 43 1011.2
20260507163502 57 270 5.0 10.0 0.00 0.00 0.00 43 1011.3
20260507163310 57 261 5.0 10.0 0.00 0.00 0.00 44 1011.4
20260507163002 56 244 4.0 10.0 0.00 0.00 0.00 46 1011.4
20260507162810 56 248 5.0 14.0 0.00 0.00 0.00 46 1011.5
20260507162523 56 246 5.0 14.0 0.00 0.00 0.00 46 1011.4
20260507162310 56 252 6.0 14.0 0.00 0.00 0.00 45 1011.4
20260507162002 57 261 7.0 14.0 0.00 0.00 0.00 44 1011.4
20260507161810 57 259 6.0 14.0 0.00 0.00 0.00 44 1011.4
20260507161522 57 264 6.0 14.0 0.00 0.00 0.00 45 1011.3
20260507161310 56 269 6.0 14.0 0.00 0.00 0.00 45 1011.4
20260507161002 56 280 6.0 14.0 0.00 0.00 0.00 46 1011.5
20260507160810 56 290 6.0 12.0 0.00 0.00 0.00 46 1011.4
20260507160502 56 289 6.0 11.0 0.00 0.00 0.00 45 1011.4
20260507160310 56 279 6.0 11.0 0.00 0.00 0.00 45 1011.4
20260507160001 56 251 5.0 11.0 0.00 0.00 0.00 45 1011.4
20260507155810 56 231 5.0 11.0 0.00 0.00 0.00 46 1011.4
20260507155502 56 221 5.0 12.0 0.00 0.00 0.00 45 1011.4
20260507155310 56 228 5.0 12.0 0.00 0.00 0.00 45 1011.5
20260507155002 56 247 5.0 12.0 0.00 0.00 0.00 45 1011.6
20260507154810 56 253 5.0 12.0 0.00 0.00 0.00 46 1011.5
20260507154502 56 263 5.0 13.0 0.00 0.00 0.00 45 1011.5
20260507154310 56 266 6.0 13.0 0.00 0.00 0.00 45 1011.5
20260507154002 56 260 6.0 13.0 0.00 0.00 0.00 46 1011.4
20260507153810 56 265 6.0 13.0 0.00 0.00 0.00 45 1011.5